Theta_e
288 288 289 289 288 289 288 289 285 288 288 293 298 300 301 299 296 292 290 289 289 290 291 293 295 297 299 303 307 311 309 307 307 307 311 315 317 319 321 321 320 321 321 320
283 288 287 284 286 286 287 287 288 291 291 299 302 302 300 298 294 290 288 287 288 288 288 288 290 291 293 295 298 300 300 299 301 301 302 302 303 304 304 304 301 302 302 304
279 285 284 281 285 287 289 292 292 289 294 300 300 300 296 294 292 289 287 286 286 287 286 286 287 289 289 291 293 294 293 295 296 297 297 297 297 296 294 294 294 294 294 293
281 282 275 285 293 291 288 292 294 294 297 296 295 291 291 291 290 288 287 286 286 286 286 286 287 287 288 289 289 290 290 291 293 294 293 293 293 292 290 290 289 289 289 289
280 280 282 285 289 289 287 288 294 293 295 296 291 289 285 287 287 286 285 285 286 287 286 286 286 287 287 287 287 288 287 288 290 291 290 290 289 288 288 287 286 286 286 286
283 273 273 286 291 296 295 285 295 295 293 293 292 288 281 285 286 285 284 285 285 285 285 286 286 287 286 285 285 285 286 286 290 289 289 288 288 287 287 287 286 286 284 285
282 280 284 291 293 296 284 285 295 291 289 292 291 285 283 284 284 285 285 285 285 285 284 284 286 286 284 284 284 285 286 287 288 288 288 289 289 289 289 288 287 286 285 285
284 280 277 293 293 287 290 293 291 288 286 283 282 282 282 283 283 283 283 284 285 284 284 285 286 285 283 283 284 285 285 285 285 286 287 287 288 288 289 288 287 286 286 285
286 286 290 290 289 291 291 290 289 287 286 284 283 282 282 281 281 282 282 282 283 283 283 284 284 285 283 283 284 284 284 284 284 284 286 287 287 286 287 287 286 285 285 284
289 287 287 288 288 288 287 286 286 287 286 284 281 281 280 281 281 281 281 281 281 281 281 281 282 283 284 284 284 284 283 283 282 282 283 284 283 284 284 284 284 284 283 282
287 286 286 285 286 287 286 285 284 284 284 282 281 280 280 279 279 280 280 281 281 280 280 280 281 281 282 284 284 283 283 282 282 282 280 279 280 281 280 280 281 281 281 281
283 285 286 283 285 286 283 283 284 282 280 281 280 279 279 278 279 279 279 280 280 280 279 279 279 279 280 282 283 282 282 281 281 281 281 280 279 277 278 278 279 278 279 280
284 285 284 284 284 285 283 283 282 281 281 279 279 279 279 278 278 278 278 278 278 278 278 279 278 278 280 279 280 281 281 281 281 280 280 280 280 279 276 275 275 276 276 276
286 286 282 283 281 282 282 282 281 281 280 280 279 279 279 279 279 278 277 278 278 278 278 278 277 276 278 280 280 279 279 279 281 281 280 280 279 278 278 277 275 274 272 273
285 285 284 283 283 282 282 282 280 279 279 278 279 278 278 277 276 276 276 277 277 276 276 276 275 274 277 278 277 279 280 279 279 279 278 278 278 277 276 276 275 275 275 273
284 283 283 281 281 281 280 279 278 276 276 275 275 275 275 275 275 274 274 274 273 272 272 271 272 272 274 277 279 279 277 276 278 279 278 277 277 276 275 274 274 273 272 271
282 280 281 280 280 280 279 279 279 277 277 276 275 276 275 274 273 272 271 271 271 271 272 272 271 272 273 275 277 279 279 277 275 277 276 276 275 274 274 274 273 272 270 268
283 284 284 282 280 279 278 278 278 277 276 275 273 272 271 271 269 269 269 270 270 269 271 272 272 273 273 274 276 277 277 276 276 275 275 275 274 274 273 273 272 271 271 268
281 280 280 279 279 278 277 276 274 273 272 271 270 268 268 268 268 269 269 269 270 270 270 271 272 272 272 272 275 276 276 275 274 274 273 272 273 273 273 272 271 271 271 270
276 277 277 276 276 275 272 272 272 270 270 269 268 267 267 266 267 267 269 268 269 271 271 271 272 272 272 271 271 274 274 274 273 273 272 272 272 272 270 268 270 270 271 270
273 273 272 271 270 271 271 271 270 269 268 269 269 267 266 266 266 266 270 272 270 270 270 269 271 272 272 271 272 273 273 272 272 272 271 271 272 271 271 271 270 270 270 270
272 271 271 271 271 271 271 271 269 268 268 267 265 266 267 267 266 267 266 271 271 267 271 271 271 266 269 269 272 272 271 271 271 271 271 271 271 271 270 270 269 269 269 268
272 272 271 270 271 271 271 270 269 269 268 267 267 269 272 272 273 272 271 269 272 268 271 271 265 265 265 270 271 270 270 269 269 269 269 269 269 269 268 268 268 268 267 267
272 273 272 272 272 272 271 271 272 271 270 270 269 269 272 273 272 273 271 268 266 268 270 269 267 263 264 271 270 270 270 270 269 269 269 262 268 268 267 267 266 267 267 265
274 274 273 273 274 274 273 273 273 272 272 272 271 271 271 273 273 272 272 271 267 268 271 264 264 264 269 270 270 269 269 269 269 268 268 267 267 267 267 267 266 266 266 266
276 277 277 276 276 277 276 275 276 275 275 274 274 275 274 274 272 272 271 269 270 269 271 271 270 269 270 269 269 268 268 269 268 268 267 267 267 267 266 266 266 266 266 266
276 275 276 275 275 275 276 275 276 275 274 274 273 274 274 273 273 271 269 272 271 271 271 271 271 269 270 269 269 269 269 269 268 268 268 267 267 267 267 266 266 266 266 265
Wind_Speed
0 2 2 4 5 6 9 8 7 10 16 16 14 12 2 7 7 10 12 13 14 13 12 13 13 12 12 11 11 11 11 11 10 10 9 6 2 4 4 6 5 8 8 7
5 4 1 5 6 7 9 9 11 12 14 6 14 5 8 8 7 11 11 11 12 12 13 13 14 13 12 12 12 11 13 12 10 11 11 11 10 11 11 11 12 12 11 11
2 5 6 7 6 1 1 2 7 11 16 15 5 12 9 8 9 10 11 12 11 12 12 12 13 11 12 12 12 12 13 12 12 12 12 11 11 13 13 12 11 13 12 12
2 5 3 8 1 6 4 8 14 13 14 11 12 12 14 12 7 8 10 11 11 10 11 11 10 11 10 12 13 12 13 13 13 13 12 12 13 14 14 12 13 11 12 12
2 1 5 6 6 6 7 4 12 15 14 3 9 9 11 12 11 8 10 8 10 8 9 10 10 10 11 13 11 14 14 14 12 13 13 11 15 14 12 12 12 12 12 14
1 3 1 8 8 11 6 6 16 17 16 17 8 3 4 8 9 8 10 9 10 8 10 10 10 11 15 13 14 15 13 13 10 10 15 15 13 13 12 12 13 10 13 13
5 3 2 8 15 13 6 8 17 14 13 15 3 6 13 11 9 7 8 11 9 9 10 10 11 14 18 17 17 16 13 16 12 13 14 13 12 11 12 12 12 13 13 13
4 4 4 13 4 7 8 7 8 9 9 12 14 13 13 12 10 10 13 14 13 13 14 13 13 13 16 17 14 13 13 13 13 13 10 11 13 11 12 13 13 12 11 11
4 5 8 8 7 6 8 5 5 7 10 10 10 12 11 12 11 11 13 13 12 12 13 14 15 14 16 13 11 12 13 13 13 13 13 13 12 11 10 12 11 9 9 9
6 8 10 8 6 7 7 9 10 11 13 12 11 10 9 9 10 11 11 13 11 12 14 15 14 14 14 12 11 12 14 14 13 14 14 14 11 11 11 11 9 9 8 9
2 8 8 10 8 6 9 10 11 11 11 12 10 9 9 11 12 12 13 12 12 12 13 14 13 14 13 11 10 11 12 12 12 11 14 14 14 11 11 13 12 8 9 8
3 4 3 5 6 8 11 10 10 11 11 11 10 10 10 11 11 11 12 12 12 13 12 12 13 14 13 11 9 9 10 9 8 8 8 9 10 12 22 21 22 23 21 13
2 8 11 10 10 10 11 10 11 12 10 11 10 9 12 13 12 14 12 12 13 12 12 12 13 13 12 11 10 9 9 8 7 8 7 7 6 6 7 12 22 21 21 20
8 9 6 5 7 8 10 11 12 11 10 10 10 10 12 13 13 13 13 12 11 11 11 11 12 13 11 9 9 9 10 10 7 7 6 6 6 6 5 5 6 8 15 15
8 9 12 9 8 8 7 7 9 9 9 10 10 10 11 12 13 11 10 10 11 12 12 11 12 12 10 9 10 10 7 7 7 7 6 6 6 6 6 6 6 6 5 8
8 8 8 8 7 6 6 6 8 8 8 8 10 10 11 11 11 11 11 11 10 10 10 10 10 9 9 8 6 7 8 9 7 5 5 5 5 6 6 6 6 7 7 8
7 6 7 6 6 6 6 7 8 8 8 9 10 9 10 10 11 11 11 10 10 10 9 9 9 8 8 8 7 5 5 5 6 5 5 5 5 6 6 6 6 6 7 8
7 7 6 7 8 8 8 8 8 9 9 9 9 8 8 9 9 8 7 6 8 9 9 8 7 7 8 8 7 5 4 5 5 5 5 5 6 6 6 6 5 5 5 6
8 9 9 9 8 9 8 9 9 9 9 8 9 9 8 7 6 5 5 4 4 6 7 7 8 7 8 9 6 4 5 5 5 5 5 4 5 5 4 4 5 5 5 4
9 9 10 11 10 10 10 8 9 9 8 8 8 8 8 6 4 4 5 7 6 5 4 6 5 6 6 7 7 5 4 5 4 5 5 4 4 4 4 5 4 3 3 3
9 9 10 10 10 9 8 7 8 8 7 6 7 7 6 4 4 3 1 3 5 5 5 5 7 5 6 6 4 5 4 4 4 4 4 3 2 3 2 2 1 2 2 3
8 9 9 9 10 9 7 7 8 7 7 7 6 5 5 5 3 4 3 5 4 3 3 4 5 8 6 7 5 4 4 4 3 3 2 2 2 1 1 1 2 2 3 3
8 9 8 8 8 8 7 6 6 6 6 5 4 3 2 4 3 2 1 3 1 4 3 4 6 6 5 4 3 3 3 3 2 2 2 3 3 3 3 3 3 3 4 4
9 9 8 8 8 7 7 6 6 6 4 4 4 2 2 1 2 1 4 4 4 1 3 3 2 3 5 2 1 1 2 1 2 2 3 2 3 2 3 3 4 4 4 4
8 8 7 6 6 5 6 7 6 6 6 5 6 5 3 1 3 3 2 3 4 5 2 5 3 3 4 3 2 3 3 3 3 4 4 4 4 4 5 4 4 5 5 5
8 4 5 4 4 3 3 4 2 3 3 3 3 2 2 2 3 3 4 2 3 3 4 2 4 4 4 4 4 5 5 5 4 4 5 5 6 5 6 6 6 6 6 6
5 4 5 4 4 3 3 2 2 1 2 3 4 2 3 2 2 3 2 3 4 3 3 4 4 4 5 5 6 6 5 6 4 5 6 6 6 6 6 6 6 6 6 6
Wind_Direction
202 99 137 154 195 211 229 243 264 302 301 315 315 326 20 118 82 69 47 32 13 8 19 26 32 43 43 45 60 85 89 82 75 67 63 82 149 225 177 182 196 191 183 185
348 191 173 264 246 259 253 259 268 275 283 343 314 352 137 122 98 84 68 49 27 13 26 30 32 36 42 41 57 66 77 73 67 70 71 65 57 54 52 55 52 57 48 46
160 242 324 258 172 128 238 278 321 315 322 314 334 32 102 85 92 94 88 68 41 26 26 33 38 37 45 48 53 59 70 64 62 63 63 66 69 66 61 56 57 60 57 60
96 280 201 83 84 80 337 63 24 2 358 22 61 67 57 62 57 84 89 83 63 38 36 34 41 45 56 56 53 55 60 65 64 63 62 62 71 71 67 64 62 59 60 54
304 298 328 122 65 6 349 61 16 355 351 43 121 99 44 39 41 31 64 52 71 63 50 46 50 52 61 59 61 60 55 46 50 67 67 65 68 72 71 72 66 62 58 54
180 307 319 66 354 342 304 223 12 355 340 320 186 223 92 53 49 46 53 51 54 49 65 58 62 69 66 61 56 60 50 56 54 57 68 65 62 74 79 77 76 69 61 53
225 260 287 7 335 314 234 0 348 360 347 326 156 67 113 99 79 60 63 68 63 58 63 48 44 63 62 56 54 53 53 62 53 62 72 77 80 80 85 84 82 74 68 59
218 230 237 10 4 11 351 314 8 33 51 76 85 90 93 88 78 66 70 69 65 62 52 53 65 62 68 61 57 61 64 71 69 64 70 74 78 76 80 84 82 78 76 70
314 44 68 41 35 10 340 25 38 77 82 83 89 85 87 86 78 73 66 61 59 60 64 55 51 56 67 69 70 67 69 70 70 71 68 63 73 76 73 74 75 73 72 69
280 77 82 61 58 38 34 60 67 82 92 86 87 83 82 88 80 72 67 64 59 60 59 56 47 52 60 66 70 75 76 73 65 62 65 65 61 51 55 57 61 60 63 64
268 89 109 65 42 49 67 72 77 77 87 95 94 88 87 79 74 69 69 67 64 61 58 57 55 53 44 55 72 77 76 76 74 75 75 68 54 51 62 52 47 62 62 52
12 21 15 59 51 68 73 70 75 83 77 76 88 94 94 83 76 75 72 69 66 64 65 61 56 52 47 44 57 72 76 71 69 75 80 83 83 76 61 63 64 61 54 56
12 72 86 87 72 66 82 80 80 82 84 87 85 95 94 90 82 81 78 70 65 62 59 57 56 54 48 51 55 66 79 78 75 72 72 73 79 95 100 78 63 52 58 56
130 127 93 31 88 80 84 87 87 85 85 88 94 95 92 90 85 75 70 69 69 67 61 59 58 49 36 46 61 73 74 64 72 74 77 78 76 74 68 70 71 75 57 51
75 75 94 105 98 90 90 98 94 89 88 83 77 82 85 86 82 77 73 76 76 67 56 52 48 39 27 43 51 45 62 64 70 74 67 74 77 74 73 74 73 70 88 85
93 95 100 98 97 88 88 82 91 85 84 89 87 82 83 87 85 77 63 51 63 56 49 49 48 26 22 26 51 74 72 53 51 67 72 70 67 71 73 73 71 64 53 32
131 130 133 126 116 109 101 104 104 103 104 98 97 97 93 89 82 72 64 63 63 57 49 41 36 22 23 22 30 50 64 70 51 62 61 63 67 69 71 70 67 66 65 41
60 73 93 117 121 116 104 99 100 97 94 90 89 87 77 75 82 80 74 79 81 66 47 37 32 35 34 27 24 46 57 60 59 58 58 57 58 59 60 64 64 65 70 71
75 88 91 93 101 106 103 100 93 94 98 100 98 90 88 84 84 81 81 89 89 84 47 35 36 40 39 25 6 43 53 61 64 67 74 89 72 63 65 64 61 52 45 40
86 87 91 91 92 104 105 100 105 99 100 105 105 98 88 76 74 84 81 71 48 47 43 39 41 52 50 45 3 48 48 60 67 64 45 57 60 64 80 49 30 38 28 28
100 100 101 102 98 94 99 111 115 106 98 93 100 97 93 87 57 351 177 77 69 44 38 43 23 23 42 13 23 36 39 46 44 43 38 46 95 51 48 40 30 352 353 343
111 107 103 103 101 99 93 101 108 111 104 96 92 99 107 102 108 89 44 12 86 14 25 39 42 29 26 346 26 27 31 31 31 20 23 357 348 320 329 318 312 329 324 323
114 113 107 104 110 109 107 105 106 112 118 122 130 137 49 39 13 338 353 88 53 57 20 43 39 23 0 352 17 21 31 17 11 11 356 339 317 309 300 293 312 305 305 304
118 118 117 118 126 127 127 134 141 134 137 149 144 166 185 144 113 70 84 90 74 161 25 76 76 12 305 359 339 4 301 333 308 306 320 258 298 288 276 288 285 290 284 256
123 126 134 153 153 139 140 150 154 159 175 159 159 176 193 48 351 128 154 138 159 240 182 151 213 239 274 297 295 293 292 288 311 312 304 295 287 281 278 276 270 277 287 282
157 140 111 78 78 112 133 173 186 168 190 182 180 175 149 138 126 170 175 182 214 210 259 212 235 232 269 268 275 273 280 286 263 264 296 285 277 276 277 278 281 274 272 279
121 136 130 114 82 64 34 33 278 280 253 284 283 183 229 210 198 245 214 229 242 255 269 271 262 240 285 294 289 281 271 273 263 289 299 290 280 280 282 281 278 277 281 281